Temp
63 63 62 62 62 62 62 62 62 62 62 63 63 63 62 62 62 63 67 80 81 75 74 85 84 85 85 80 84 83 69 63 69 73 72 78 75 82 85 79 82 82 79 81 84
62 62 62 62 62 62 62 62 62 62 62 63 63 62 62 62 64 71 80 78 76 76 82 82 81 83 76 77 78 72 66 69 79 78 78 81 79 80 78 76 75 76 82 85 85
62 62 62 62 62 62 62 62 62 62 62 62 62 62 62 63 66 79 80 76 76 77 86 88 88 83 75 77 79 73 72 81 81 84 82 76 74 76 76 70 74 73 77 82 83
62 62 62 61 61 61 61 61 62 62 62 62 62 62 62 65 65 79 77 76 76 83 85 84 82 74 72 70 78 75 81 83 86 85 80 75 79 74 74 77 82 81 82 82 82
61 61 61 61 61 61 61 61 61 61 61 61 62 62 61 70 74 79 77 77 81 83 81 81 76 75 72 76 78 77 82 85 86 83 81 83 78 76 77 84 85 85 85 82 82
60 60 61 60 60 60 60 60 60 60 61 61 62 64 65 68 87 82 83 80 85 81 83 83 82 84 79 77 76 82 85 86 81 78 82 80 78 79 79 84 83 84 81 81 79
60 60 60 60 60 60 60 60 60 60 61 63 64 70 74 75 91 86 87 82 86 87 82 88 90 81 81 76 84 84 79 79 73 73 76 81 74 74 81 83 80 81 81 80 79
60 60 60 60 60 60 60 60 60 61 62 63 65 69 67 93 92 88 88 87 90 90 89 92 89 79 76 80 81 77 67 63 69 75 79 75 65 76 81 80 77 79 80 79 77
60 59 59 59 60 60 59 59 61 63 64 66 65 66 70 87 91 93 91 87 90 91 90 98 86 75 80 72 67 64 56 60 66 74 73 71 65 75 80 79 76 76 78 78 75
60 59 58 58 59 59 58 60 64 66 67 76 80 69 77 82 91 95 92 92 87 88 85 79 76 69 70 68 57 59 61 63 63 71 70 67 67 73 77 79 76 75 77 77 74
60 59 58 57 57 57 57 62 69 67 73 72 74 79 88 92 97 90 93 88 86 81 70 75 65 62 70 73 76 76 69 67 68 75 66 64 69 72 75 76 76 76 76 74 72
59 58 57 56 56 57 55 61 73 75 65 80 82 83 90 92 84 89 92 80 76 69 75 69 65 74 80 80 77 75 71 69 69 74 65 65 67 73 74 76 78 77 76 72 71
57 57 57 57 57 59 68 73 83 80 62 75 82 82 85 86 82 83 87 82 75 70 72 68 73 83 80 78 76 73 69 72 67 73 67 63 62 69 75 76 76 77 75 74 71
57 57 57 56 60 65 67 82 83 80 53 69 76 83 86 85 77 91 91 84 77 72 72 71 80 81 78 77 78 69 78 79 77 68 55 66 54 62 71 71 74 74 72 72 69
56 57 56 56 57 60 74 81 82 73 42 77 80 91 86 80 81 83 93 84 74 75 72 69 75 74 75 78 81 74 81 75 75 67 60 63 58 60 68 67 70 70 73 72 69
56 56 56 64 59 66 75 79 72 52 46 74 82 78 76 81 81 84 84 86 84 75 74 75 84 80 79 83 79 81 76 71 68 62 52 58 56 53 61 68 70 70 73 72 69
56 56 54 64 60 73 71 67 49 47 75 71 73 78 75 75 77 80 76 72 66 58 59 70 75 81 83 74 76 72 63 51 50 48 49 61 59 52 60 63 64 65 67 70 70
54 54 57 65 69 72 67 55 44 64 67 81 79 77 71 75 75 77 73 67 72 69 62 59 60 74 82 75 69 68 66 55 45 45 51 65 57 53 61 64 67 65 65 69 67
52 62 65 70 72 70 56 45 53 66 78 76 79 70 69 76 74 74 71 70 74 74 60 60 65 81 82 79 75 67 64 70 57 61 53 58 55 59 62 65 70 65 67 66 66
53 58 64 76 78 68 53 49 61 73 77 78 68 73 65 71 70 69 70 77 75 79 77 67 59 77 80 79 78 75 75 60 56 47 46 56 55 54 57 63 67 64 63 66 67
53 56 72 80 73 60 49 55 66 76 78 74 69 68 69 69 73 70 71 78 80 80 79 70 61 68 72 68 67 66 67 66 62 57 49 47 49 59 60 61 60 63 65 67 70
58 53 74 76 56 56 54 63 64 72 76 77 74 72 69 73 71 72 71 76 85 83 73 71 61 57 65 76 81 72 70 66 54 54 52 49 49 71 67 64 62 66 67 70 71
54 60 73 69 51 53 61 66 70 70 71 74 72 75 74 69 64 73 75 85 85 82 72 71 58 52 59 67 72 70 70 68 62 59 53 49 51 72 72 72 70 68 71 72 70
54 50 60 62 62 57 56 59 63 76 74 77 73 74 70 67 70 68 73 83 86 84 71 73 61 58 54 62 68 65 71 71 62 54 58 58 59 64 67 71 68 70 71 70 70
55 53 56 49 58 58 59 60 60 64 75 73 68 71 69 62 67 67 74 77 83 73 74 68 58 64 67 73 75 73 74 74 65 65 60 63 62 64 68 69 70 71 71 70 69
49 50 53 54 58 58 57 59 61 66 69 67 64 72 71 62 65 67 68 67 67 71 70 65 58 63 62 73 75 74 76 73 71 72 71 67 63 69 70 72 71 71 71 69 68
55 59 54 52 56 56 58 62 65 70 73 76 73 70 69 72 74 75 69 70 70 66 64 63 60 57 54 68 69 62 65 65 73 72 72 60 64 70 68 70 68 69 70 69 69
MSLP
1019.24 1018.91 1018.46 1017.82 1017.17 1016.68 1016.46 1016.01 1015.47 1014.64 1013.93 1013.66 1013.13 1012.58 1012.26 1012.02 1011.28 1011.08 1009.71 1007.32 1007.00 1007.01 1007.65 1007.52 1007.86 1007.50 1007.22 1007.18 1006.93 1007.02 1008.26 1009.19 1008.42 1008.52 1009.01 1008.28 1008.75 1009.52 1010.08 1010.19 1010.55 1010.95 1012.18 1012.92 1013.48
1019.18 1018.90 1018.47 1017.75 1017.17 1016.54 1016.00 1015.73 1015.17 1014.71 1013.92 1013.27 1013.11 1012.56 1012.42 1012.11 1011.17 1009.40 1006.72 1006.39 1006.35 1006.80 1007.47 1007.22 1007.45 1007.22 1007.17 1006.54 1006.73 1006.50 1007.19 1007.96 1007.09 1007.26 1007.81 1008.17 1008.69 1009.44 1010.52 1011.23 1011.72 1012.05 1012.69 1012.96 1013.43
1019.14 1018.78 1018.46 1017.83 1017.07 1016.40 1015.74 1015.36 1014.83 1014.34 1013.73 1013.34 1012.95 1012.54 1012.33 1011.99 1010.86 1007.01 1005.30 1006.24 1006.30 1006.63 1006.75 1006.61 1006.47 1006.58 1006.64 1006.31 1006.18 1006.22 1006.74 1006.37 1006.90 1006.42 1006.88 1008.34 1009.08 1009.79 1010.13 1011.55 1011.74 1012.09 1012.61 1013.01 1013.29
1019.06 1018.60 1018.17 1017.91 1017.18 1016.48 1015.57 1015.02 1014.60 1013.91 1013.52 1012.94 1012.71 1012.36 1012.07 1011.81 1009.27 1005.95 1005.62 1006.08 1006.36 1006.56 1006.88 1006.60 1006.34 1006.38 1005.98 1006.03 1005.34 1005.39 1005.93 1006.44 1005.97 1005.97 1007.42 1008.25 1009.00 1009.94 1010.13 1010.56 1011.27 1011.84 1012.03 1012.52 1013.18
1018.86 1018.52 1018.06 1017.43 1016.85 1016.24 1015.40 1014.82 1014.30 1013.59 1012.92 1012.35 1012.30 1012.12 1012.24 1010.55 1007.40 1005.77 1005.97 1006.39 1006.65 1006.70 1006.66 1006.55 1006.32 1005.92 1005.68 1005.41 1005.37 1005.03 1005.93 1005.75 1005.65 1006.39 1007.16 1008.16 1009.12 1009.57 1010.15 1010.36 1011.05 1011.43 1011.51 1012.10 1012.93
1018.57 1018.25 1017.87 1017.33 1016.64 1015.86 1015.04 1014.36 1013.88 1013.29 1012.69 1012.11 1012.04 1012.00 1011.51 1008.79 1005.20 1005.39 1005.93 1006.54 1006.25 1006.42 1006.17 1006.12 1005.56 1005.06 1004.86 1004.83 1005.33 1005.04 1004.97 1006.02 1006.45 1007.25 1007.48 1008.42 1009.49 1009.72 1010.30 1010.48 1011.05 1011.43 1011.63 1012.19 1013.03
1018.44 1017.87 1017.45 1017.12 1016.30 1015.34 1014.69 1013.85 1013.25 1012.74 1011.97 1011.94 1011.92 1011.65 1009.89 1006.42 1004.69 1005.08 1005.70 1005.91 1005.67 1005.90 1005.79 1005.14 1004.93 1004.87 1004.90 1005.00 1004.21 1004.37 1005.58 1006.56 1008.01 1008.22 1008.38 1008.54 1009.78 1009.96 1010.23 1010.50 1011.18 1011.51 1011.93 1012.42 1013.17
1018.39 1017.69 1016.95 1016.51 1016.22 1015.10 1014.29 1013.25 1012.36 1011.64 1011.16 1011.18 1011.24 1010.83 1008.21 1004.06 1004.43 1004.88 1005.25 1005.57 1005.42 1005.46 1005.42 1004.73 1004.51 1004.56 1004.98 1004.98 1004.71 1005.31 1007.15 1008.68 1009.33 1008.76 1008.82 1009.95 1009.85 1010.03 1009.96 1010.49 1011.04 1011.50 1011.99 1012.64 1013.37
1018.29 1017.65 1016.89 1015.97 1015.25 1014.93 1013.65 1012.72 1011.15 1010.60 1010.46 1010.65 1010.78 1010.00 1006.64 1003.90 1003.91 1004.23 1004.51 1005.07 1005.15 1005.18 1005.02 1004.61 1004.29 1004.77 1005.08 1005.41 1005.75 1007.49 1009.28 1010.08 1010.25 1009.15 1010.11 1010.62 1010.17 1009.93 1009.82 1010.07 1010.64 1011.18 1011.87 1012.61 1013.56
1018.14 1017.53 1016.82 1015.94 1014.73 1014.25 1013.51 1011.47 1009.79 1010.16 1010.21 1010.10 1009.63 1009.02 1005.58 1003.87 1003.59 1003.56 1003.95 1004.49 1004.91 1004.96 1004.96 1004.77 1004.91 1005.21 1005.36 1005.67 1006.51 1007.73 1008.93 1009.53 1011.21 1010.46 1010.44 1010.49 1009.90 1009.90 1009.59 1009.51 1010.10 1010.74 1011.61 1012.62 1013.71
1017.95 1017.36 1016.71 1015.81 1014.89 1014.21 1013.38 1011.45 1010.10 1009.95 1008.97 1008.23 1007.30 1005.74 1003.70 1003.25 1002.86 1003.35 1003.80 1004.34 1004.71 1005.04 1005.25 1005.30 1005.68 1005.41 1005.44 1005.19 1005.57 1006.43 1007.64 1009.34 1010.36 1010.07 1010.91 1010.04 1009.28 1008.86 1009.18 1009.53 1009.88 1010.48 1011.27 1012.49 1013.67
1017.86 1017.28 1016.59 1015.62 1014.59 1013.78 1013.84 1012.08 1009.50 1008.97 1007.85 1006.76 1005.80 1004.97 1003.78 1002.99 1003.06 1003.33 1003.53 1004.47 1004.87 1005.31 1005.50 1005.68 1005.22 1005.15 1005.08 1004.82 1005.03 1005.46 1006.40 1007.32 1009.16 1009.41 1010.07 1009.01 1008.55 1008.70 1008.74 1008.19 1008.46 1009.56 1010.64 1012.10 1013.57
1017.78 1017.24 1016.43 1015.49 1013.96 1013.01 1012.36 1010.30 1008.52 1008.06 1007.80 1005.23 1004.25 1003.71 1003.02 1002.91 1003.01 1003.09 1003.52 1004.09 1004.76 1005.42 1005.40 1005.32 1004.78 1004.74 1004.58 1004.44 1004.60 1004.81 1005.23 1005.60 1006.97 1007.65 1008.77 1009.49 1009.17 1008.04 1008.57 1009.08 1009.65 1009.54 1010.42 1011.41 1012.69
1017.65 1017.08 1016.45 1015.40 1013.49 1013.09 1011.18 1008.85 1008.25 1008.33 1007.80 1003.92 1002.44 1002.03 1002.35 1002.54 1002.96 1002.83 1003.04 1004.03 1004.30 1004.78 1005.27 1004.99 1004.34 1004.08 1003.94 1003.82 1003.94 1004.16 1003.96 1004.33 1005.04 1006.60 1008.84 1008.99 1008.78 1007.39 1008.36 1009.01 1009.52 1010.30 1010.40 1011.51 1013.06
1017.50 1016.95 1016.37 1016.38 1015.10 1013.34 1010.64 1009.46 1008.73 1008.68 1006.91 1001.01 1000.52 1000.08 1001.24 1002.09 1002.01 1002.16 1002.51 1003.57 1003.90 1004.09 1004.65 1004.19 1003.67 1003.51 1003.23 1002.76 1002.95 1003.33 1003.13 1003.72 1004.38 1005.60 1006.66 1007.45 1008.23 1009.05 1008.86 1009.22 1008.86 1010.11 1010.73 1011.33 1012.79
1017.27 1016.85 1016.37 1014.58 1014.76 1012.47 1011.28 1010.14 1009.18 1008.87 1004.99 1000.51 999.99 1000.18 1001.16 1001.67 1002.00 1001.80 1002.46 1003.11 1003.32 1004.00 1003.98 1003.64 1002.85 1002.56 1002.03 1002.02 1002.41 1002.70 1003.22 1003.65 1004.67 1005.94 1007.17 1008.39 1009.59 1010.45 1010.34 1009.57 1009.15 1010.01 1010.68 1011.24 1012.77
1016.81 1016.38 1016.58 1015.34 1013.25 1011.45 1011.45 1010.76 1009.64 1007.02 1002.13 1000.65 1000.16 1000.00 1000.86 1001.19 1001.56 1001.80 1002.38 1003.13 1003.66 1004.07 1004.02 1003.43 1002.58 1001.88 1001.29 1001.58 1002.00 1002.83 1004.16 1005.16 1006.13 1007.07 1007.92 1008.49 1010.23 1012.86 1011.89 1011.62 1011.22 1012.30 1013.01 1011.34 1012.64
1016.29 1015.46 1014.33 1013.35 1012.28 1012.09 1011.87 1010.99 1008.88 1004.56 1002.07 1000.06 999.85 1000.10 1000.54 1000.90 1001.27 1001.44 1002.11 1002.91 1003.34 1003.77 1003.72 1003.53 1002.46 1001.51 1001.27 1001.64 1002.31 1002.99 1004.11 1005.46 1006.09 1006.93 1007.83 1007.92 1010.21 1012.07 1010.49 1011.02 1010.41 1011.07 1013.22 1011.84 1012.94
1015.68 1013.82 1012.67 1011.17 1011.43 1011.93 1012.27 1010.73 1006.83 1003.53 1001.34 999.99 999.31 999.80 1000.35 1000.51 1000.70 1001.11 1001.37 1002.13 1002.57 1002.87 1003.65 1003.07 1002.35 1001.27 1000.93 1001.16 1002.05 1002.66 1003.37 1004.04 1005.54 1006.24 1007.62 1008.70 1011.24 1012.00 1010.58 1010.39 1010.21 1010.89 1012.46 1012.14 1013.36
1016.16 1013.85 1010.98 1009.49 1009.79 1010.91 1011.37 1009.34 1006.20 1003.76 1001.80 1000.14 999.26 999.37 999.81 1000.08 1000.37 1000.31 1000.83 1000.99 1001.40 1001.85 1002.32 1002.46 1002.69 1001.48 1000.90 1000.97 1001.33 1001.98 1002.62 1003.91 1005.20 1006.56 1007.56 1008.07 1009.73 1010.14 1010.59 1009.62 1009.63 1011.80 1011.76 1012.14 1013.19
1016.00 1012.94 1008.53 1007.99 1009.50 1010.27 1010.10 1008.27 1006.10 1003.72 1002.29 1001.02 1000.54 1000.13 999.98 999.96 999.66 999.79 999.81 999.69 1000.03 1000.62 1001.44 1002.17 1003.03 1001.90 1001.85 1001.02 1001.17 1001.84 1002.41 1003.41 1004.47 1005.70 1006.96 1007.72 1008.69 1007.89 1009.56 1009.95 1010.21 1011.89 1011.59 1011.76 1012.51
1014.75 1011.92 1008.24 1008.18 1009.62 1009.68 1009.17 1008.02 1005.97 1004.14 1002.78 1001.44 1001.07 1000.72 1000.31 1000.02 999.25 998.90 998.69 998.46 998.52 999.41 1000.70 1001.61 1002.59 1002.69 1001.98 1000.84 1000.16 1000.82 1001.80 1002.76 1004.41 1005.59 1006.48 1006.95 1006.69 1005.88 1006.01 1008.84 1008.95 1010.15 1010.71 1011.23 1012.18
1014.71 1011.62 1008.84 1008.92 1009.31 1009.26 1008.52 1007.32 1006.21 1004.70 1003.21 1001.86 1001.33 1000.82 1000.41 1000.15 999.69 998.21 997.82 997.41 997.56 998.56 999.71 1001.06 1002.25 1002.62 1001.98 1000.97 1000.24 1000.77 1001.15 1001.90 1003.27 1004.52 1005.47 1006.20 1005.85 1004.64 1004.82 1006.65 1007.54 1008.38 1009.75 1010.86 1011.75
1015.26 1012.44 1009.96 1009.44 1009.42 1009.16 1008.69 1007.29 1005.67 1004.06 1003.08 1001.93 1001.53 1001.12 1000.82 1000.27 999.37 998.74 998.06 997.38 997.18 997.87 998.66 999.96 1001.56 1002.20 1002.26 1001.27 1000.93 1000.78 1000.93 1001.19 1002.39 1003.95 1004.21 1004.31 1004.59 1004.73 1005.36 1006.17 1006.88 1007.51 1008.67 1009.99 1011.01
1015.29 1012.85 1012.03 1010.70 1009.89 1009.49 1008.81 1007.47 1005.89 1004.10 1002.64 1001.96 1001.90 1001.55 1001.13 1000.84 999.91 999.27 998.60 998.06 997.54 998.07 998.85 1000.12 1001.67 1001.85 1001.49 1001.27 1000.88 1000.43 1000.34 1000.36 1001.37 1002.13 1003.06 1003.07 1003.71 1004.35 1004.66 1005.28 1006.16 1007.01 1008.23 1009.47 1010.70
1015.64 1014.08 1013.09 1011.61 1010.73 1009.25 1008.14 1007.10 1006.08 1004.19 1002.89 1002.16 1002.07 1001.62 1001.04 1001.00 1000.73 1000.15 999.99 999.49 999.20 998.87 999.16 1000.19 1001.36 1001.85 1001.78 1001.47 1000.92 1000.68 1000.93 1000.15 1000.53 1000.88 1001.98 1002.60 1003.65 1003.62 1004.37 1005.04 1006.08 1007.21 1008.17 1009.37 1010.69
1016.13 1014.92 1014.01 1012.06 1010.91 1009.68 1008.21 1006.97 1005.46 1004.16 1002.69 1001.89 1001.65 1001.64 1001.07 1001.15 1000.69 1000.56 1000.33 1000.05 999.95 999.91 999.88 1000.48 1001.32 1002.37 1002.45 1002.18 1001.72 1001.59 1001.66 1000.82 1000.03 1000.59 1000.96 1002.53 1003.24 1003.71 1004.60 1005.14 1006.01 1007.08 1007.96 1009.14 1010.47
Wind_Speed
13 14 15 17 19 20 18 19 19 21 21 20 19 18 17 16 14 4 6 11 8 12 4 4 5 8 8 6 8 6 3 3 7 9 13 12 13 19 15 16 9 11 19 13 14
13 13 15 17 19 20 20 19 20 19 21 21 18 17 15 11 4 9 10 6 7 13 4 6 8 10 5 4 2 4 5 9 1 14 18 18 19 13 11 15 17 17 14 13 16
13 13 13 17 19 21 21 20 21 21 21 19 17 15 12 8 5 7 15 10 11 10 7 7 9 8 8 3 5 4 7 11 13 11 15 11 13 3 17 12 16 18 17 16 12
14 15 14 14 19 21 22 21 21 22 21 20 16 14 9 5 2 2 8 10 7 5 5 7 8 6 5 3 4 5 6 10 9 9 17 10 11 6 6 12 19 18 18 19 17
15 16 16 16 18 21 23 22 21 21 21 20 15 10 5 4 9 6 9 7 6 5 5 9 7 6 6 2 2 6 5 8 10 12 12 15 13 8 11 15 17 17 14 12 13
15 16 16 18 20 21 23 24 22 20 20 18 13 5 4 6 3 12 9 7 8 5 7 8 10 9 6 6 5 10 11 8 9 7 15 17 11 8 9 12 12 11 8 13 17
15 17 17 18 21 23 23 24 24 22 21 15 9 5 7 13 8 11 10 5 7 7 5 12 10 4 7 10 5 5 6 12 11 8 5 12 8 10 11 13 10 10 13 14 15
15 17 20 21 21 24 25 27 27 25 21 14 5 4 9 8 10 9 10 8 9 9 11 15 5 3 2 4 6 7 9 6 6 8 7 11 7 12 13 14 12 10 14 13 11
15 17 20 23 24 23 27 28 31 22 10 2 3 4 10 3 5 14 11 9 9 11 11 14 3 2 6 4 1 11 6 6 10 2 8 3 4 10 12 14 12 10 13 14 12
16 17 19 23 25 24 26 31 20 6 3 7 7 4 8 11 8 9 8 9 9 7 7 1 2 1 5 1 6 5 6 6 5 11 5 15 16 7 13 15 15 13 14 14 16
16 18 20 23 26 22 19 10 5 3 4 8 5 7 10 15 9 7 10 8 5 4 5 6 2 6 11 9 7 11 10 10 7 14 2 12 20 11 19 13 15 15 15 15 16
16 17 22 25 27 26 8 4 4 7 10 11 18 20 20 3 5 9 10 8 7 6 7 4 10 9 10 9 9 8 6 10 15 14 12 21 21 14 21 24 18 18 17 17 17
15 18 20 24 26 12 8 12 8 7 4 12 15 12 16 6 8 10 11 8 8 9 10 10 7 11 12 12 13 10 8 10 14 18 12 6 17 18 22 10 6 9 11 21 23
15 16 19 24 6 10 7 5 7 6 4 9 11 17 14 7 6 12 12 9 7 14 10 9 14 15 14 14 13 13 9 12 12 7 10 19 8 3 19 17 11 9 17 20 19
15 16 17 8 8 5 10 18 9 4 4 8 15 11 11 13 7 13 16 11 13 11 7 8 11 14 16 19 18 16 11 4 5 5 4 11 6 7 18 10 14 11 18 20 19
16 16 15 10 5 11 15 18 4 0 9 5 10 10 14 17 20 7 15 10 8 10 7 14 12 11 15 6 2 5 7 7 6 1 3 5 7 5 1 7 4 4 18 18 20
17 17 10 7 6 10 13 6 1 5 9 14 15 13 18 11 17 13 15 14 11 5 6 8 13 8 5 3 5 3 5 5 7 4 6 9 5 7 11 20 14 16 11 19 18
19 21 10 10 8 9 5 2 5 10 14 5 14 16 15 14 15 15 15 11 12 11 3 6 8 7 5 7 11 8 7 5 7 4 6 2 7 5 6 18 21 13 18 16 15
22 4 7 8 13 7 2 3 7 8 7 18 15 13 14 15 9 14 14 16 16 16 8 4 10 10 8 5 9 7 9 9 4 8 2 6 6 6 10 12 18 23 16 17 16
6 5 8 12 9 5 3 7 8 12 20 13 3 11 14 15 14 9 14 16 14 19 13 8 4 8 10 10 9 11 5 2 2 5 6 5 5 6 4 5 13 10 18 17 16
4 4 7 10 6 3 6 7 11 20 19 8 13 7 5 6 16 12 12 12 19 17 16 9 6 17 4 4 9 3 7 5 2 6 6 0 2 8 11 5 5 12 15 19 19
4 4 2 5 3 4 9 7 8 19 22 6 5 7 7 15 4 17 11 13 22 21 17 10 7 7 12 12 14 10 9 7 5 8 3 4 8 6 10 23 15 18 22 19 15
4 5 5 3 4 8 9 17 19 22 22 6 7 7 9 8 5 9 9 11 12 21 13 10 4 3 11 8 5 9 7 5 5 4 5 6 5 1 9 17 19 19 21 18 20
4 4 3 1 4 6 8 12 16 17 20 14 8 10 8 9 7 6 5 7 9 12 11 14 6 8 9 8 3 2 6 7 8 4 5 6 7 4 6 16 14 15 19 19 17
4 3 1 1 4 8 7 11 19 17 14 5 9 9 8 6 8 7 8 11 5 8 4 9 7 7 9 8 12 9 11 14 8 9 7 6 9 8 11 10 15 18 17 17 16
3 4 5 4 10 10 9 11 17 21 14 6 7 10 10 8 4 4 9 7 5 6 9 5 6 6 6 7 10 14 13 3 3 9 6 12 7 8 7 8 13 17 16 16 15
4 5 4 4 5 6 5 13 14 16 15 13 12 11 12 8 9 8 4 7 8 4 4 7 6 5 5 6 10 9 7 8 6 3 3 5 9 8 9 10 14 12 15 15 15
Wind_Direction
339 335 329 325 324 322 324 322 321 319 317 314 321 320 319 308 300 207 241 226 186 189 160 194 191 243 261 258 257 264 202 310 237 142 121 105 96 72 74 78 83 91 130 143 133
334 332 326 324 322 320 322 323 319 318 313 316 320 318 310 307 273 246 242 186 181 149 214 212 192 225 245 249 256 112 123 183 336 123 127 129 111 112 102 94 95 107 114 133 145
329 329 330 324 322 318 318 321 318 316 312 312 319 314 301 300 286 243 170 180 160 166 251 249 230 203 228 233 186 248 92 15 313 134 109 116 110 86 122 135 142 142 154 163 161
327 327 327 322 317 314 315 318 315 313 310 311 319 310 302 247 327 169 141 159 169 186 265 285 274 247 235 252 206 102 175 201 136 112 113 124 137 85 131 154 147 158 177 170 170
325 324 324 321 315 312 313 312 312 310 310 310 319 308 276 245 253 144 140 158 150 146 234 240 270 248 236 327 285 102 283 206 109 98 108 119 114 118 115 129 146 170 183 139 140
320 321 322 320 313 312 311 311 309 307 304 307 313 311 257 249 137 140 156 169 183 177 227 242 244 242 293 272 192 215 149 149 98 104 103 108 122 114 136 129 143 156 157 116 109
319 319 320 320 314 312 311 310 308 302 297 296 292 255 260 246 157 162 163 206 197 193 235 249 247 14 358 334 213 155 118 77 37 17 113 126 131 146 143 141 157 182 130 116 117
318 319 320 319 316 313 312 310 305 299 289 285 243 260 256 275 166 172 167 210 219 227 239 274 293 2 187 295 281 80 57 21 318 41 348 9 192 155 156 157 176 162 136 128 121
319 320 319 318 316 316 315 309 300 290 248 186 175 218 266 273 187 187 167 192 215 230 241 262 133 204 325 258 346 13 106 51 338 267 20 79 239 180 173 169 173 166 151 146 130
318 319 318 316 314 319 320 304 288 328 174 196 253 298 256 230 200 208 172 205 206 232 262 178 32 238 290 103 188 153 126 67 317 267 309 274 249 220 189 183 177 170 158 153 139
318 319 321 318 315 320 334 337 349 23 226 243 210 268 302 217 200 173 168 215 186 249 205 198 184 202 241 238 247 168 129 172 181 255 342 240 246 243 194 200 183 177 169 159 147
320 321 323 318 314 313 294 252 33 254 296 269 262 263 267 243 153 187 161 180 172 208 215 254 221 232 235 253 255 264 259 215 169 200 184 260 244 220 194 204 187 180 175 151 142
323 321 321 320 309 302 291 268 286 343 292 280 235 239 248 153 197 205 176 204 179 208 224 225 213 228 243 253 260 246 230 261 177 206 210 323 259 205 199 199 230 185 169 154 154
321 320 321 327 321 333 282 340 334 35 298 260 197 220 234 149 224 234 181 188 202 203 220 231 247 219 226 240 253 269 234 233 260 151 205 203 261 254 167 179 201 248 154 155 148
319 320 318 311 298 291 308 328 329 39 307 178 189 178 190 176 163 217 178 204 228 196 183 238 228 235 231 229 233 252 259 234 281 267 32 350 52 333 139 191 190 203 163 157 147
316 316 327 311 202 254 294 304 355 219 248 197 146 160 185 189 220 201 168 200 234 254 251 226 221 233 233 219 200 338 337 349 306 190 337 147 119 256 254 200 214 187 176 151 141
312 306 300 294 249 322 322 312 158 230 285 146 166 165 191 182 209 209 175 195 215 197 253 282 244 256 147 70 8 359 20 338 311 346 225 188 94 46 345 345 327 286 265 143 148
311 303 246 224 224 263 318 326 238 253 246 317 162 174 201 185 214 221 173 190 223 233 216 224 265 238 161 173 192 213 189 195 244 207 239 231 162 176 54 322 294 270 232 140 135
309 261 241 231 217 212 265 253 222 222 311 305 182 173 193 203 200 206 178 197 204 217 205 213 235 257 179 171 160 253 236 211 253 279 334 121 88 202 232 246 278 165 167 137 142
315 281 253 232 214 179 211 242 265 316 311 332 192 166 184 199 200 212 185 196 207 207 209 256 299 273 264 170 220 191 218 266 278 248 263 196 131 186 239 203 97 159 151 150 156
259 262 262 177 166 131 221 238 283 284 291 347 344 332 348 256 196 218 192 196 195 210 205 220 136 273 351 261 172 235 250 250 183 146 205 203 227 206 174 198 186 219 171 159 167
272 256 196 96 124 203 238 260 254 285 298 270 307 316 304 304 268 201 214 201 188 202 195 193 176 233 245 271 185 183 206 191 128 281 115 124 258 211 168 187 192 165 164 164 160
270 271 299 40 219 238 269 261 258 270 279 290 282 280 295 300 319 210 205 238 186 199 175 188 230 266 325 327 198 188 219 195 121 92 201 151 268 68 109 142 147 152 154 160 144
283 295 228 178 276 276 294 296 270 260 268 254 288 309 311 310 293 304 339 244 224 178 160 153 168 159 213 222 30 227 235 213 142 126 244 209 155 212 171 147 158 144 139 145 148
261 262 111 299 255 282 242 280 292 289 265 267 303 292 287 309 326 306 298 305 167 136 104 126 173 183 240 280 275 266 285 222 195 212 206 208 157 194 169 150 150 145 142 144 145
294 341 336 294 290 299 249 250 263 278 268 225 233 267 268 262 279 329 10 13 328 341 160 175 193 184 286 287 274 281 245 96 302 245 97 114 72 132 133 106 123 147 146 143 146
327 325 293 290 275 301 299 230 262 262 290 250 206 245 263 14 358 312 290 280 264 269 224 140 127 118 245 276 286 290 342 333 228 190 161 135 173 130 137 138 146 144 143 145 147